This demonstration page uses our WeatherBlox Daily Observations layout. Learn more.

Left ArrowRight Arrow

44.31136, -96.79839

Hourly Observations for May 8, 2022

Temp ( °F °C ) Dew Point ( °F °C ) Humidity (%) Winds ( mph kmh ) Pressure ( in mb ) Visibility ( mi km ) Precip ( " mm )
12:56 am 00:56 Cloudy with Light Rain 59 15 49 9.4 69 69 S 21 33 29.63 1004 10 16 0.00 0.00
1:56 am 01:56 Cloudy with Light Rain 56 13.3 51 10.6 84 84 S 18 30 29.65 1004 8 13 0.09 2.29
2:56 am 02:56 Cloudy with Rain 55 12.8 51 10.6 87 87 S 23 37 29.64 1004 6 10 0.10 2.54
3:56 am 03:56 Cloudy with Rain 54 12.2 52 11.1 93 93 S 17 28 29.65 1004 5 8 0.11 2.79
4:07 am 04:07 Cloudy with Heavy Rain 54 12 52 11 94 94 S 13 20 29.63 1003 3 5 0.05 1.27
4:29 am 04:29 Cloudy with Heavy Rain 54 12 52 11 94 94 S 12 19 29.63 1003 3 4 0.16 4.06
4:38 am 04:38 Cloudy with Rain 54 12 52 11 94 94 S 12 19 29.63 1003 4 6 0.19 4.83
4:56 am 04:56 Cloudy with Rain 54 12.2 52 11.1 93 93 S 15 24 29.66 1005 4 6 0.23 5.84
5:56 am 05:56 Cloudy with Light Rain 53 11.7 52 11.1 96 96 SSE 17 28 29.65 1004 10 16 0.09 2.29
6:06 am 06:06 Cloudy with Light Rain 54 12 52 11 94 94 SSE 22 35 29.61 1003 10 16 0.01 0.25
6:12 am 06:12 Cloudy with Light Rain 54 12 52 11 94 94 SSE 21 33 29.60 1002 10 16 0.01 0.25
6:56 am 06:56 Cloudy 53 11.7 51 10.6 93 93 SE 28 44 29.57 1002 10 16 0.01 0.25
7:15 am 07:15 Cloudy 52 11 50 10 94 94 SE 29 46 29.52 1000 10 16 0.00 0.00
7:56 am 07:56 Cloudy 52 11.1 49 9.4 89 89 SE 26 43 29.52 1000 10 16 0.00 0.00
8:56 am 08:56 Cloudy 53 11.7 51 10.6 93 93 S 13 20 29.60 1002 10 16 0.00 0.00
9:46 am 09:46 Cloudy 54 12 52 11 94 94 SSW 10 17 29.63 1003 10 16 0.00 0.00
9:56 am 09:56 Cloudy 54 12.2 51 10.6 90 90 SSW 10 17 29.67 1005 10 16 0.00 0.00
10:56 am 10:56 Cloudy 55 12.8 51 10.6 87 87 S 10 17 29.65 1004 10 16 0.00 0.00
11:56 am 11:56 Cloudy 57 13.9 52 11.1 83 83 S 12 19 29.66 1004 10 16 0.00 0.00
12:10 pm 12:10 Cloudy 57 14 52 11 82 82 SSW 9 15 29.62 1003 10 16 0.00 0.00
12:56 pm 12:56 Cloudy 60 15.6 53 11.7 78 78 SSW 9 15 29.64 1004 10 16 0.00 0.00
1:56 pm 13:56 Cloudy 60 15.6 52 11.1 75 75 S 9 15 29.65 1004 10 16 0.00 0.00
2:56 pm 14:56 Mostly Cloudy 62 16.7 54 12.2 75 75 S 10 17 29.62 1003 10 16 0.00 0.00
3:28 pm 15:28 Partly Cloudy 63 17 55 13 77 77 SE 12 19 29.56 1001 10 16 0.00 0.00
3:42 pm 15:42 Mostly Cloudy 64 18 55 13 73 73 SE 12 19 29.55 1001 10 16 0.00 0.00
3:56 pm 15:56 Cloudy 64 17.8 55 12.8 73 73 SSE 13 20 29.62 1003 10 16 0.00 0.00
4:56 pm 16:56 Mostly Cloudy 64 17.8 55 12.8 73 73 SE 10 17 29.61 1003 10 16 0.00 0.00
5:56 pm 17:56 Partly Cloudy 64 17.8 55 12.8 73 73 SE 13 20 29.62 1003 10 16 0.00 0.00
6:31 pm 18:31 Mostly Cloudy 64 18 55 13 73 73 SE 14 22 29.55 1001 10 16 0.00 0.00
6:56 pm 18:56 Partly Cloudy 63 17.2 55 12.8 76 76 SE 12 19 29.61 1003 10 16 0.00 0.00
7:56 pm 19:56 Partly Cloudy 60 15.6 55 12.8 84 84 SE 17 28 29.61 1003 10 16 0.00 0.00
8:48 pm 20:48 Mostly Cloudy 57 14 54 12 88 88 SE 16 26 29.58 1002 10 16 0.00 0.00
8:56 pm 20:56 Mostly Cloudy 57 13.9 54 12.2 90 90 ESE 14 22 29.63 1004 10 16 0.00 0.00
9:12 pm 21:12 Partly Cloudy 55 13 54 12 94 94 ESE 17 28 29.58 1002 10 16 0.00 0.00
9:21 pm 21:21 Mostly Cloudy 55 13 54 12 94 94 SE 15 24 29.59 1002 10 16 0.00 0.00
9:30 pm 21:30 Mostly Cloudy 55 13 54 12 94 94 SE 14 22 29.60 1002 10 16 0.00 0.00
9:40 pm 21:40 Mostly Cloudy 55 13 54 12 94 94 SE 14 22 29.60 1002 10 16 0.00 0.00
9:56 pm 21:56 Mostly Cloudy 55 12.8 53 11.7 93 93 SE 16 26 29.66 1004 10 16 0.00 0.00
10:17 pm 22:17 Cloudy 55 13 54 12 94 94 ESE 14 22 29.61 1003 10 16 0.00 0.00
10:29 pm 22:29 Cloudy 55 13 54 12 94 94 ESE 16 26 29.61 1003 10 16 0.00 0.00
10:35 pm 22:35 Cloudy 55 13 54 12 94 94 SE 15 24 29.61 1003 10 16 0.00 0.00
10:56 pm 22:56 Cloudy 55 12.8 53 11.7 93 93 SE 12 19 29.66 1004 10 16 0.00 0.00
11:06 pm 23:06 Cloudy 55 13 54 12 94 94 SE 15 24 29.61 1003 10 16 0.00 0.00
11:15 pm 23:15 Cloudy 55 13 54 12 94 94 SE 12 19 29.60 1002 10 16 0.00 0.00
11:56 pm 23:56 Cloudy 55 12.8 53 11.7 93 93 ESE 16 26 29.63 1003 8 13 0.00 0.00

Powered by AerisWeather